Location: Nied?wied?
(53.3665°N, 14.8184°E)
Time: 23:15:25
(UTC+00:00)

Cosmos 1844 - Pass Details

Date: 03 March 2021
Orbit: 822 x 868 km, 70.9° (Epoch: 12 April)

Event Time Altitude Azimuth Distance (km) Brightness Sun altitude
Rises 18:32:49 0° 326° (NW) 3,463 7.6 -17.1°
Reaches altitude 10° 18:35:19 10° 323° (NW) 2,519 6.9 -17.5°
Maximum altitude 18:41:00 58° 246° (WSW) 997 4.3 -18.3°
Drops below altitude 10° 18:46:35 10° 168° (SSE) 2,480 5.9 -19.1°
Enters shadow 18:47:06 - 167° (SSE) 2,672 6.0 -19.2°
